Other Public Products
Issued by NWS Grand Forks, ND

Home | Current Version | Previous Version | Graphics & Text | Print | Product List | Glossary On
Versions: 1 2 3 4 5 6 7 8 9 10 11 12 13 14 15 16 17 18 19 20 21 22 23 24 25 26 27 28 29 30 31 32 33 34 35 36 37 38 39 40 41 42 43 44 45 46 47 48 49 50
000
FPUS83 KFGF 282110
OPUFGF
PRAIRIE TO PINES WEATHER ROUNDUP
NATIONAL WEATHER SERVICE EASTERN NORTH DAKOTA/GRAND FORKS ND
400 PM CDT THU AUG 28 2014

 **SATELLITE DATA USED TO AUGMENT SKY COVER AT AUTOMATED STATIONS**
 *****  WEATHER ACROSS EASTERN NORTH DAKOTA  *****

CITY           SKY/WX    TMP DP  RH WIND       PRES   REMARKS
GRAND FORKS    PTSUNNY   76  66  71 S13       29.88F
GRAND FORKS AF CLOUDY    74  69  82 SW13      29.89F
GRAND CITY NWS   N/A     73 N/A N/A S13         N/A
BUXTON         NOT AVBL
DEVILS LAKE    PTSUNNY   79  64  61 S15       29.84F
FARGO          CLOUDY    72  64  76 S13       29.91F
WAHPETON ARPT  CLOUDY    68  63  83 SE9       29.93F
$$

 *****  WEATHER ACROSS CENTRAL AND WESTERN NORTH DAKOTA  *****

CITY           SKY/WX    TMP DP  RH WIND       PRES   REMARKS
JAMESTOWN      CLOUDY    71  65  81 S7        29.89F
BISMARCK       CLOUDY    74  67  78 S8        29.88F
MINOT          SUNNY     86  54  33 S13       29.80F
MINOT AFB      SUNNY     86  55  33 SW12      29.79F
GARRISON         N/A     82  62  50 S7        29.84F
WILLISTON      MOSUNNY   89  53  29 SW12      29.80F
DICKINSON      MOSUNNY   84  54  35 W6        29.86F
HETTINGER      PTSUNNY   81  53  37 S8        29.90F
$$

 *****  OTHER OBSERVATIONS NORTHEAST NORTH DAKOTA  *****

CITY           SKY/WX    TMP DP  RH WIND       PRES   REMARKS
WALHALLA       FAIR      81  66  61 SW12      29.83F
LANGDON        FAIR      79  64  61 S17       29.85F
CAVALIER       MOCLDY    81  68  65 S16       29.83F
GRAFTON        FAIR      77  66  69 S17       29.85F
CANDO          MOCLDY    77  66  69 SW12G17   29.85F
FORT TOTTEN    NOT AVBL
ROLLA            N/A     77  63  61 SW15G22   29.85F
RUGBY          FAIR      81  66  61 S10G18    29.83F
 ***** THE ABOVE OBSERVATIONS ARE NON NWS ARE NOT QUALITY
        CONTROLLED AND MAY MIS-REPORT RAIN FOR SNOW...
$$

 *****  OTHER OBSERVATIONS SOUTHEAST NORTH DAKOTA *****

CITY           SKY/WX    TMP DP  RH WIND       PRES   REMARKS
COOPERSTOWN    NOT AVBL
VALLEY CITY    CLOUDY    72  72 100 SE10      29.90F
OAKES            N/A     70  70 100 E7        29.90S
GWINNER        CLOUDY    70  66  88 SE12      29.91F
BUFFALO        NOT AVBL
WYNDMERE       NOT AVBL
 ***** THE ABOVE OBSERVATIONS ARE NON NWS ARE NOT QUALITY
       CONTROLLED AND MAY MIS-REPORT RAIN FOR SNOW...
$$

  *****  WEATHER ACROSS NORTHERN MINNESOTA  *****

CITY           SKY/WX    TMP DP  RH WIND       PRES   REMARKS
FLAG ISLAND    PTSUNNY   70  63  78 S12       29.91F
WARROAD        PTSUNNY   75  66  73 S13       29.92F
ROSEAU         MOSUNNY   75  64  69 S14       29.91F
HALLOCK        PTSUNNY   77  66  69 S20G26    29.85F
THF RVR FALLS  CLOUDY    68  64  88 S6        29.93F
HALSTAD          N/A     71  63  74 S9          N/A
FOSSTON        CLOUDY    66  61  82 S5        29.95F
BAUDETTE       CLOUDY    72  61  68 S10       29.94F
WASKISH        PTSUNNY   72  61  68 S7        29.96F
CROOKSTON      PTSUNNY   72  64  78 S15       29.92F
$$
  *****  WEATHER ACROSS CENTRAL AND WEST MINNESOTA  *****

CITY           SKY/WX    TMP DP  RH WIND       PRES   REMARKS
BEMIDJI        PTSUNNY   71  61  71 SE8       29.97S
PARK RAPIDS    CLOUDY    71  59  65 S12       29.97F
WADENA         LGT RAIN  68  63  83 SE7       29.97S
DETROIT LAKES  CLOUDY    70  61  73 S12       29.96F
MOORHEAD       DRIZZLE   72  68  88 S13       29.93S
FERGUS FALLS   DRIZZLE   68  64  88 SE8       29.94F
ELBOW LAKE     RAIN      66  64  93 SE6       29.94F
MORRIS MN      LGT RAIN  66  66 100 SE9       29.93F
STAPLES        CLOUDY    70  59  68 SE5       29.97F
WHEATON        DRIZZLE   64  63  94 SE9       29.94F
$$
  *****  WEATHER ELSEWHERE ACROSS MINNESOTA  *****

CITY           SKY/WX    TMP DP  RH WIND       PRES   REMARKS
DULUTH         PTSUNNY   68  55  63 E9        30.03F
INTRNTL FALLS  CLOUDY    72  59  63 SE6       29.97F
ELY            MOSUNNY   72  52  49 S6        30.02F
CLOQUET        PTSUNNY   70  55  60 E8        30.02F
BRAINERD       CLOUDY    70  61  73 SE5       29.99F
HIBBING        CLOUDY    75  57  53 S8        30.01F
ALEXANDRIA     LGT RAIN  67  63  87 SE10      29.97F
SAINT CLOUD    CLOUDY    73  61  65 SE12      29.97F
MINNEAPOLIS    CLOUDY    69  65  86 SE13      29.98F
$$

  *****  WEATHER ACROSS SOUTH DAKOTA  *****

CITY           SKY/WX    TMP DP  RH WIND       PRES   REMARKS
SIOUX FALLS    CLOUDY    73  69  87 SE8       29.88F
BROOKINGS      NOT AVBL
WATERTOWN      CLOUDY    67  66  97 E6        29.90F FOG
HURON          CLOUDY    72  67  84 E8        29.84F
SISSETON         N/A     67  66  97 S9        29.90F
ABERDEEN       CLOUDY    69  68  96 E6        29.87F
MITCHELL       CLOUDY    75  69  81 E8        29.84F
PIERRE         CLOUDY    75  68  78 N14       29.85F
MOBRIDGE       LGT RAIN  70  68  93 E7        29.86F
RAPID CITY     CLOUDY    76  56  49 CALM      29.96F
$$

  *****  SOME WEATHER IN NEARBY STATES *****

CITY           SKY/WX    TMP DP  RH WIND       PRES   REMARKS
GLASGOW MT     SUNNY     88  50  27 W17       29.83F
GREAT FALLS MT FAIR      86  44  23 W15G23    29.91F
CHEYENNE WY    CLOUDY    58  51  78 NW12G21   30.18F
SCOTTSBLUFF NE NOT AVBL
OMAHA NE       PTSUNNY   82  69  64 S10       29.87F
DES MOINES IA  CLOUDY    78  72  81 SE12      29.92F
DAVENPORT IA   HVY RAIN  67  66  97 S8        30.05R FOG
CHICAGO IL     PTSUNNY   74  56  53 NE10      30.07F
EAU CLAIRE WI  LGT RAIN  69  65  86 SE7       30.03S
LA CROSSE WI   CLOUDY    70  65  84 SE6       30.01F
$$

  *****  SOME NATIONAL WEATHER *****

CITY           SKY/WX    TMP DP  RH WIND       PRES   REMARKS
LA GUARDIA NY  PTSUNNY   80  52  37 NW14G22   29.89R
RALEIGH NC     MOSUNNY   88  71  57 CALM      29.96S HX  94
ATLANTA GA     MOSUNNY   90  56  31 NE3       30.01S
NEW ORLEANS LA PTSUNNY   92  67  43 VRB7      29.93F HX  95
OKLAHOMA CITY  PTSUNNY   93  61  34 S9G20     29.88F HX  93
ALBUQUERQUE NM MOSUNNY   81  41  24 NW13      30.15F
SALT LAKE CITY FAIR      83  42  23 W6        30.15F
LOS ANGELES CA FAIR      81  54  39 W17       29.94F
BOISE ID       FAIR      87  42  20 N10       30.03F
SEATTLE WA     CLOUDY    68  58  70 SW8       30.12F
$$

*** WEATHER ACROSS MANITOBA...SASKATCHEWAN AND ONTARIO ***
                ***ONTARIO***

CITY           SKY/WX    TMP DP  RH WIND       PRES   REMARKS
GERALDTON      MOSUNNY   72  46  40 SW12      30.04F
THUNDER BAY    MOSUNNY   70  55  60 S10       30.05F
SIOUX LOOKOUT  PTSUNNY   73  55  53 S10G17    29.95F
TORONTO        MOSUNNY   72  45  37 N10G18    30.08S
BIG TROUT LK     N/A    N/A N/A N/A MISG        N/A
PICKLE LAKE    MOSUNNY   75  45  33 SW16G25   29.92F
DRYDEN         CLOUDY    72  57  60 S13G18    29.95F
KENORA         PTSUNNY   72  59  64 S16G23    29.93F
$$
                *** MANITOBA***

CITY           SKY/WX    TMP DP  RH WIND       PRES   REMARKS
BRANDON        MOSUNNY   84  63  48 W14       29.77F
DAUPHIN        SUNNY     82  66  57 W9        29.72F
ISLAND LAKE    PTSUNNY   73  63  68 W6        29.70F
PILOT MOUND      N/A     81  64  57 SW15        N/A
THE PAS        PTSUNNY   70  61  73 W7        29.72
THOMPSON       CLOUDY    68  59  73 NW3       29.69S
WINNIPEG       MOSUNNY   82  64  54 S17       29.81F
LYNN LAKE      MOSUNNY   66  50  55 MISG      29.68F
CHURCHILL      PTSUNNY   70  52  52 W13       29.54F
GILLAM         CLOUDY    70  50  49 W3        29.67F
$$
                ***SASKATCHEWAN***

CITY           SKY/WX    TMP DP  RH WIND       PRES   REMARKS
ESTEVAN        MOSUNNY   86  61  42 S8        29.78F
KINDERSLEY     PTSUNNY   72  48  43 N12G20    29.90F
LLOYDMINSTER   CLOUDY    66  45  45 NW14      29.92R
PRINCE ALBERT  PTSUNNY   72  54  53 NW14G20   29.81F
REGINA         MOSUNNY   81  64  57 N7        29.77F
YORKTON        PTSUNNY   77  59  53 N6        29.78S


USA.gov is the U.S. government's official web portal to all federal, state and local government web resources and services.